Volver al catálogo

SL-14 R/B

ActivoLEO
NORAD 19196·ROCKET BODY·🇷🇺 Russia

Lanzado May 30, 1988 desde Plesetsk Cosmodrome

Loading…

Próximos Pases (próximas 24 horas)

TLE

ActualizadoSource: Space-Track

Época: Sep 14, 2026, 15:42 UTC

1 19196U 88046B   26257.65445900  .00000003  00000-0  14665-3 0  9995
2 19196  73.6026 326.3635 0020109  51.3775 116.6304 12.41406113735425

Sigue SL-14 R/B en tiempo real con AllMySat

Download on the App Store